AirNav   Air Wisconsin pilot careers
 
 528 users online  

36S Happy Camp Airport
Happy Camp, California, USA

GOING TO HAPPY CAMP?


FAA INFORMATION EFFECTIVE 03 JANUARY 2019

Location

FAA Identifier: 36S
Lat/Long: 41-47-26.4460N / 123-23-20.2000W
41-47.440767N / 123-23.336667W
41.7906794 / -123.3889444
(estimated)
Elevation: 1209 ft. / 368.5 m (surveyed)
Variation: 18E (1985)
Time zone: UTC -8 (UTC -7 during Daylight Saving Time)
Zip code: 96039

Airport Operations

Airport use: Open to the public
Activation date: 10/1951
Control tower: no
ARTCC: SEATTLE CENTER
FSS: RANCHO MURIETA FLIGHT SERVICE STATION
NOTAMs facility: RIU (NOTAM-D service available)
Attendance: UNATNDD
Wind indicator: yes
Segmented circle: yes

Airport Communications

CTAF: 122.9

Nearby radio navigation aids

VOR radial/distance  VOR name  Freq  Var
FJSr289/33.2FORT JONES VOR/DME109.6019E
CECr075/38.1CRESCENT CITY VORTAC109.0014E

Airport Services

Parking: tiedowns
Airframe service: NONE
Powerplant service: NONE
Bottled oxygen: NONE
Bulk oxygen: NONE

Runway Information

Runway 4/22

Dimensions: 3000 x 50 ft. / 914 x 15 m
Surface: asphalt, in fair condition
Weight bearing capacity: 
Single wheel: 30.0
RUNWAY 4  RUNWAY 22
Latitude: 41-47.298167N41-47.563167N
Longitude: 123-23.608667W123-23.051333W
Traffic pattern: rightleft
Markings: basic, in fair conditionbasic, in fair condition
Runway end identifier lights: nono
Obstructions: 25 ft. tree, 500 ft. from runway, 120 ft. left of centerline, 12:1 slope to clear
RWY 04 HAS 3 FT FENCE O FEET FROM RWY END AND 80 FEET L.
10 ft. brush, 200 ft. from runway, 125 ft. right of centerline
RY 22 HAS 8 FT SHRUB 0 FEET FM RY END AND 115 FT RIGHT.

Airport Ownership and Management from official FAA records

Ownership: Publicly-owned
Owner: U.S. FOREST SERVICE
63822 HIGHWAY 96
HAPPY CAMP, CA 96039-0377
Phone 530-493-1730
OPERD/MAINTD BYCOUNTY OF SISKIYOU COUNTY.
Manager: MELISSA CUMMINS
190 GREENHORN ROAD
YREKA, CA 96097
Phone (530) 842-8220
DIRECTOR OF AIRPORTS OFFICE IN YREKA.

Airport Operational Statistics

Aircraft operations: 150/year *
100% transient general aviation
* for 12-month period ending 31 December 2017

Additional Remarks

E94 US FOREST SERVICE.
RWY 22 HAS +35' TREES 600' FROM THLD 125' EITHER SIDE OF CNTRLN.
A93 US FOREST SVC MANS HELIPORT MAY THROUGH SEP.

Instrument Procedures

There are no published instrument procedures at 36S.

Some nearby airports with instrument procedures:

KCEC - Jack Mc Namara Field Airport (38 nm W)
KSIY - Siskiyou County Airport (41 nm E)
KMFR - Rogue Valley International - Medford Airport (42 nm NE)
3S8 - Grants Pass Airport (43 nm N)
O46 - Weed Airport (46 nm SE)
 
Loc | Ops | Rwys | IFR | FBO | Links
Com | Nav | Svcs | Stats | Notes
Area around 36S (Happy Camp Airport)
 
Road maps at: MapQuest Bing Google
 
Aerial photo
WARNING: Photo may not be current or correct
Aerial photo of 36S (Happy Camp Airport)
Do you have a better or more recent aerial photo of Happy Camp Airport that you would like to share? If so, please send us your photo.

 
Sectional chart

 
Airport distance calculator
Flying to Happy Camp Airport? Find the distance to fly.

From to 36S

Sunrise and sunset
Times for 18-Jan-2019
 Local
(UTC-8)
 Zulu
(UTC)
Morning civil twilight07:0815:08
Sunrise07:3815:38
Sunset17:1001:10
Evening civil twilight17:4101:41

Current date and time
Zulu (UTC)  18-Jan-2019 12:09:48
Local (UTC-8)  18-Jan-2019 04:09:48
 
METAR
3S4 
23nm NW 
SuperAWOS
181055Z AUTO 00000KT 7SM 03/03 A3017
KCEC 
37nm W 
181156Z AUTO 15014KT 10SM FEW026 FEW036 OVC110 11/06 A3018 RMK AO2 SLP221 60001 70079 T01110061 10111 20100 53001
S03 
40nm NE 
SuperAWOS
181055Z AUTO 00000KT 10SM 00/M01 A3020
KSIY 
41nm E 
181153Z AUTO 01004KT 10SM FEW120 01/M01 A3022 RMK AO2 SLP252 70022 T00061006 10011 20000 53010
KMFR 
42nm NE 
181153Z AUTO 00000KT 9SM OVC009 02/01 A3022 RMK AO2 SLP240 70004 T00220011 10044 20017 53010
K3S8 
43nm N 
181155Z AUTO 10003KT 3/4SM BR BKN003 OVC033 04/04 A3022 RMK AO2
KBOK 
44nm NW 
181156Z AUTO 14007KT 7SM OVC022 10/07 A3018 RMK AO2 SLP236 60000 70044 T01000072 10100 20094 50003
TAF
KCEC 
37nm W 
180540Z 1806/1906 17010G18KT P6SM VCSH SCT025 BKN035 OVC100 FM181300 15015G22KT 5SM -RA BKN025 OVC050 WS020/18047KT FM182000 14019G30KT 3SM RA BR SCT015 OVC025 WS020/20050KT FM190000 16025G35KT P6SM VCSH BKN035
KMFR 
42nm NE 
181154Z 1812/1912 00000KT P6SM BKN006 FM181700 13007KT P6SM -RA SCT006 OVC040 WS015/19030KT FM181900 13010KT 4SM RA BR OVC025 WS020/19040KT FM190200 10005KT P6SM -RA BKN035 OVC045 WS020/21040KT
NOTAMs
Click for the latest NOTAMs
NOTAMs are issued by the DoD/FAA and will open in a separate window not controlled by AirNav.

 

 
 

Would you like to see your business listed on this page?

 If your business provides an interesting product or service to pilots, flight crews, aircraft, or users of the Happy Camp Airport, you should consider listing it here.  To start the listing process, click on the button below
 
Add a business
 

Other Pages about Happy Camp Airport

Update a link
 
Copyright © AirNav, LLC. All rights reserved. Privacy Policy  Contact